THOR ABLESTAR DEB, 1504

Orbit data source: Space-Track

THOR ABLESTAR DEB, 1504 is space debris in LEO originally from a launch on Fri, 13 Aug 1965 UTC launched from the Air Force Western Test Range (AFWTR). Debris objects in space refer to the collection of defunct objects orbiting the Earth. Examples of debris include non-operational satellites, rocket bodies, and fragments generated from explosions, collisions, or faulty payload assembly.

Loading next visibility...
Identifier
1504, 1965-065A
Orbit
LEO
Country
Flag of USUS
Related business
Manufacturer
NRL
Mission
Spacecraft
Bus & Motor
Unknown
Mass
Unknown
Launch date (UTC)
1965-08-13 (60 years ago)
Launch vehicle
Unknown
Launch site
Air Force Western Test Range (AFWTR)
Object type
Payload
Rocket body
Debris
Shape & HBR
Unknown shape, 0.1 m
Radar Cross Section
Small (<0.1 m²)

Expand to show TLE details & history
Last TLE update: 5 hours ago

TLE from 5 hours ago
0 THOR ABLESTAR DEB
1  1504U 65065A   25304.59454066  .00000297  00000-0  51969-3 0  9996
2  1504  89.9519 242.6077 0066676 145.6470  37.8879 13.40305131937089
Epoch: 2025-10-31T14:16Z
TLE epoch observation values (Epoch: 2025-10-31T14:16:08.313Z)
Latitude
-4.14624°
Longitude
168.4398°
Altitude
1,072.441 km
Speed
7.335 km/s
True Right ascension
04h 10m 26s
True Declination
-4° 07' 21"
Sunlit
Object was in full shadow at epoch
Visualization orbit readout
Latitude
Unknown
Longitude
Unknown
Altitude
Unknown
Speed
Unknown
Apparent Right ascension
Unknown
Apparent Declination
Unknown
Sunlit
N/A
Visualization observer readout
Local Sidereal Time
15:05:48
Azimuth
Unknown
Elevation
Unknown
Doppler factor
Unknown
Orbital elements
Apogee altitude
1,155.103 km
Perigee altitude
1,055.311 km
Semi-major axis
7,483.344 km
Eccentricity
0.00667
Inclination
89.9519°
RAAN
242.6077°
Arg. of periapsis
145.647°
True anomaly
38.36022°
Mean anomaly
37.8879°
Eccentric anomaly
38.12375°
Mean motion
3.35274 °/min
Orbital period
107.37 mins
BSTAR
0.00051969
Loading maneuver chart data...
Computing Atmospheric mass density...
Loading historical data...
Loading historical data...
Loading historical data...
Loading historical data...
Loading historical data...
Loading historical data...
Loading historical data...

Documentation

Showing up to 5 results
|